Preview of NWS' New Version of Forecast
This preview is not operational and should not be used for support decisions.

Regional Weather Roundup (RWR)

Issued by Burlington, VT (BTV)

                            
000
ASUS41 KBTV 220430
RWRBTV
VERMONT REGIONAL WEATHER ROUNDUP
NATIONAL WEATHER SERVICE BURLINGTON VT
1100 PM EST MON JAN 21 2019

NOTE: "FAIR" INDICATES FEW OR NO CLOUDS BELOW 12,000 FEET WITH NO 
SIGNIFICANT WEATHER AND/OR OBSTRUCTIONS TO VISIBILITY.

* THESE REPORTS ARE NOT UNDER NWS QUALITY CONTROL AND/OR DO NOT
  REPORT WEATHER SUCH AS PRECIPITATION AND FOG.

VTZ001>019-220500-
_____VERMONT_____

  
CITY           SKY/WX    TMP DP  RH WIND       PRES   REMARKS
BURLINGTON     FAIR       2 -11  54 NW15      30.31R WCI -17          
MONTPELIER     MIX PCPN  -3 -11  68 NW23G35   30.18R WCI -27          
MORRISVILLE      N/A     -2 -12  62 S6        30.20R WCI -14          
ST. JOHNSBURY*   N/A     -3 -12  65 MISG      30.13R                  
LYNDONVILLE*   FAIR      -5 -13  68 W14G21    30.10R WCI -25          
MIDDLEBURY*    FAIR      -4 -13  64 N6        30.28R WCI -16          
RUTLAND*       FAIR      -8 -15  71 NE7       30.24R WCI -23          
SPRINGFIELD    FAIR      -1 -15  51 NW16G31   30.17R WCI -21          
HIGHGATE*      FAIR      -3 -12  63 W6        30.33R WCI -15          
NEWPORT*       FAIR      -4 -12  68 NW13G22   30.14R WCI -23          
BENNINGTON     FAIR      -2 -17  49 NW5       30.25R WCI -12          
ISLAND POND*     N/A     -6 N/A N/A W7          N/A  WCI -20          
GALLUP MILLS*    N/A     -6 N/A N/A MISG        N/A                   

_____LAKE CHAMPLAIN_____

  
CITY           SKY/WX    TMP DP  RH WIND       PRES   REMARKS
BURTON ISLAND*   N/A      1  -8  66 NW9G18      N/A  WCI -14          
COLCHESTER RF*   N/A      7  -4  61 NW22        N/A  WCI -14          
DIAMOND ISL*     N/A      7  -8  51 NW10G18     N/A  WCI  -8          

$$

NYZ007-026>031-035-052-083-087-220500-
_____NORTHERN NEW YORK_____

  
CITY           SKY/WX    TMP DP  RH WIND       PRES   REMARKS
PLATTSBURGH    FAIR       1 -13  51 NW12G22   30.32R WCI -16          
SARANAC LAKE   FAIR     -10 -15  78 VRB6      30.24R WCI -23          
MASSENA        FAIR      -4 -13  65 W9        30.48R WCI -20          
OGDENSBURG*    MOCLDY    -4 -17  54 W8G15     30.48R WCI -19          
POTSDAM*       MOCLDY    -6 -15  65 W7        30.46R WCI -20          
WATERTOWN      FAIR      -9 -15  75 CALM      30.52R                  
FT DRUM        FAIR      -3 -14  61 W5        30.45R WCI -14          
ALBANY         FAIR       5 -11  47 NW20G32   30.34R WCI -15          
GLENS FALLS    FAIR       2 -13  49 NW14G25   30.33R WCI -16          

$$
NHZ002-005-011-220500-
_____NEW HAMPSHIRE_____

  
CITY           SKY/WX    TMP DP  RH WIND       PRES   REMARKS
LEBANON        FAIR       2 -14  47 N9        30.15R WCI -13          
MT WASHINGTON  BLWGSNOW -24 -24 100 NW94G108    N/A  VSB 1/16WCI -72  
PLYMOUTH       FAIR       1 -11  58 NW24G36   30.09R HAZE    WCI -22  
WHITEFIELD     CLOUDY    -2 -12  62 NW6G17    30.08R WCI -14          

$$

_____REGIONAL QUEBEC LOCATIONS_____

  
CITY           SKY/WX    TMP DP  RH WIND       PRES   REMARKS
MONTREAL       CLEAR     -2 -13  60 W14       30.36R WCI -21          
QUEBEC CITY    MOCLDY     0 -15  50 W6        30.09R WCI -12          
SHERBROOKE     PTCLDY    -4 -11  71 W17       30.10R WCI -26          

_____REGIONAL ONTARIO LOCATIONS_____

  
CITY           SKY/WX    TMP DP  RH WIND       PRES   REMARKS
OTTAWA         CLEAR     -6 -15  65 NW13      30.46R WCI -25          

______KEY______
VSB  - VISIBILITY IN MILES
WCI  - WIND CHILL INDEX
HX   - HEAT INDEX
$$
NNNN